| time (UTC) | temp F | wind direction | speed MPH | gust MPH | rain 1hr in | rain 24hr in | rain mn in | humidity % | barometer mb |
| 20260504224602 | 72 | 283 | 0.0 | 8.0 | 0.00 | 0.00 | 0.00 | 50 | 998.3 |
| 20260504224511 | 72 | 314 | 0.0 | 8.0 | 0.00 | 0.00 | 0.00 | 47 | 998.2 |
| 20260504223028 | 75 | 306 | 0.0 | 6.0 | 0.00 | 0.00 | 0.00 | 51 | 997.9 |
| 20260504221555 | 77 | 238 | 4.0 | 8.0 | 0.00 | 0.00 | 0.00 | 47 | 997.8 |
| 20260504220124 | 79 | 198 | 4.0 | 8.0 | 0.00 | 0.00 | 0.00 | 42 | 997.8 |
| 20260504214558 | 79 | 232 | 0.0 | 1.0 | 0.00 | 0.00 | 0.00 | 40 | 997.9 |
| 20260504213020 | 79 | 257 | 0.0 | 6.0 | 0.00 | 0.00 | 0.00 | 40 | 998.1 |
| 20260504211540 | 80 | 216 | 2.0 | 5.0 | 0.00 | 0.00 | 0.00 | 37 | 998.2 |
| 20260504210100 | 79 | 257 | 1.0 | 5.0 | 0.00 | 0.00 | 0.00 | 40 | 998.4 |
| 20260504204559 | 79 | 255 | 3.0 | 7.0 | 0.00 | 0.00 | 0.00 | 40 | 998.6 |
| 20260504203016 | 80 | 219 | 4.0 | 9.0 | 0.00 | 0.00 | 0.00 | 38 | 998.8 |
| 20260504201534 | 80 | 224 | 0.0 | 4.0 | 0.00 | 0.00 | 0.00 | 36 | 998.8 |
| 20260504200058 | 81 | 207 | 1.0 | 4.0 | 0.00 | 0.00 | 0.00 | 38 | 999.0 |
| 20260504194548 | 81 | 232 | 0.0 | 4.0 | 0.00 | 0.00 | 0.00 | 35 | 999.2 |
| 20260504193006 | 79 | 255 | 0.0 | 5.0 | 0.00 | 0.00 | 0.00 | 39 | 999.6 |
| 20260504191535 | 79 | 284 | 0.0 | 5.0 | 0.00 | 0.00 | 0.00 | 34 | 999.7 |
| 20260504190059 | 81 | 260 | 2.0 | 9.0 | 0.00 | 0.00 | 0.00 | 35 | 999.8 |
| 20260504184551 | 80 | 275 | 2.0 | 5.0 | 0.00 | 0.00 | 0.00 | 34 | 999.9 |
| 20260504183054 | 80 | 278 | 2.0 | 6.0 | 0.00 | 0.00 | 0.00 | 37 | 999.9 |
| 20260504181513 | 79 | 264 | 1.0 | 6.0 | 0.00 | 0.00 | 0.00 | 39 | 1000.0 |
| 20260504180001 | 78 | 283 | 3.0 | 8.0 | 0.00 | 0.00 | 0.00 | 40 | 1000.2 |
| 20260504174520 | 78 | 221 | 2.0 | 8.0 | 0.00 | 0.00 | 0.00 | 39 | 1000.6 |
| 20260504173040 | 77 | 213 | 2.0 | 6.0 | 0.00 | 0.00 | 0.00 | 38 | 1000.8 |
| 20260504171558 | 77 | 260 | 0.0 | 5.0 | 0.00 | 0.00 | 0.00 | 41 | 1001.0 |
| 20260504171504 | 77 | 290 | 0.0 | 5.0 | 0.00 | 0.00 | 0.00 | 42 | 1001.0 |
| 20260504170118 | 77 | 217 | 1.0 | 5.0 | 0.00 | 0.03 | 0.00 | 39 | 1001.3 |
| 20260504140111 | 62 | 247 | 0.0 | 2.0 | 0.00 | 0.10 | 0.00 | 70 | 1003.8 |
| 20260504120131 | 46 | 218 | 0.0 | 0.0 | 0.00 | 0.10 | 0.00 | 88 | 1004.6 |
| 20260504100117 | 45 | 219 | 0.0 | 2.0 | 0.00 | 0.10 | 0.00 | 86 | 1004.8 |
| 20260504090113 | 46 | 226 | 0.0 | 0.0 | 0.00 | 0.10 | 0.00 | 84 | 1004.8 |
| 20260504081544 | 47 | 227 | 0.0 | 0.0 | 0.00 | 0.10 | 0.00 | 85 | 1004.8 |
| 20260504080106 | 47 | 227 | 0.0 | 0.0 | 0.00 | 0.10 | 0.00 | 84 | 1004.6 |
| 20260504050014 | 50 | 227 | 0.0 | 0.0 | 0.00 | 0.10 | 0.10 | 83 | 1006.7 |
| 20260504044540 | 51 | 227 | 0.0 | 0.0 | 0.00 | 0.10 | 0.10 | 81 | 1006.7 |
| 20260504043055 | 52 | 226 | 0.0 | 0.0 | 0.00 | 0.10 | 0.10 | 80 | 1006.7 |
| 20260504041519 | 52 | 227 | 0.0 | 0.0 | 0.00 | 0.10 | 0.10 | 78 | 1006.6 |
| 20260504040100 | 53 | 227 | 0.0 | 0.0 | 0.00 | 0.10 | 0.10 | 77 | 1006.6 |
| 20260504034551 | 54 | 226 | 0.0 | 0.0 | 0.00 | 0.10 | 0.10 | 77 | 1006.5 |
| 20260504033128 | 54 | 227 | 0.0 | 0.0 | 0.00 | 0.10 | 0.10 | 77 | 1006.7 |
| 20260504031520 | 54 | 227 | 0.0 | 1.0 | 0.00 | 0.10 | 0.10 | 75 | 1006.7 |
| 20260504030050 | 54 | 227 | 0.0 | 0.0 | 0.00 | 0.10 | 0.10 | 75 | 1006.8 |
| 20260504024544 | 56 | 227 | 0.0 | 0.0 | 0.00 | 0.10 | 0.10 | 73 | 1006.7 |
| 20260504023008 | 56 | 227 | 0.0 | 1.0 | 0.00 | 0.10 | 0.10 | 72 | 1006.7 |
| 20260504021528 | 57 | 227 | 0.0 | 1.0 | 0.00 | 0.10 | 0.10 | 70 | 1006.6 |
| 20260504020100 | 58 | 227 | 0.0 | 1.0 | 0.00 | 0.10 | 0.10 | 69 | 1006.6 |
| 20260504014548 | 59 | 227 | 0.0 | 1.0 | 0.00 | 0.10 | 0.10 | 67 | 1006.4 |
| 20260504013002 | 60 | 227 | 0.0 | 1.0 | 0.00 | 0.10 | 0.10 | 66 | 1006.3 |
| 20260504011526 | 60 | 224 | 0.0 | 1.0 | 0.00 | 0.10 | 0.10 | 65 | 1006.2 |
| 20260504010021 | 60 | 264 | 0.0 | 1.0 | 0.00 | 0.10 | 0.10 | 65 | 1006.2 |
| 20260504004556 | 62 | 264 | 0.0 | 0.0 | 0.00 | 0.10 | 0.10 | 63 | 1006.2 |
| 20260504003056 | 63 | 264 | 0.0 | 1.0 | 0.00 | 0.10 | 0.10 | 59 | 1006.1 |
| 20260504001524 | 64 | 264 | 0.0 | 1.0 | 0.00 | 0.10 | 0.10 | 57 | 1006.1 |
| 20260504000014 | 65 | 265 | 0.0 | 0.0 | 0.00 | 0.10 | 0.10 | 57 | 1006.3 |
| 20260503234543 | 66 | 264 | 0.0 | 1.0 | 0.00 | 0.10 | 0.10 | 54 | 1006.1 |
| 20260503233059 | 67 | 252 | 0.0 | 1.0 | 0.00 | 0.10 | 0.10 | 53 | 1006.3 |
| 20260503233004 | 67 | 252 | 0.0 | 1.0 | 0.00 | 0.10 | 0.10 | 52 | 1006.3 |
| 20260503231523 | 68 | 252 | 0.0 | 3.0 | 0.00 | 0.10 | 0.10 | 51 | 1006.3 |
| 20260503230057 | 69 | 278 | 0.0 | 4.0 | 0.00 | 0.10 | 0.10 | 50 | 1006.4 |